7 * 24
多渠道服务支持
STARLINK-5504是美国太空探索技术公司Starlink卫星互联网项目的成员,于2023年7月7日发射升空,属于第二代星链卫星。它运行在近地轨道,旨在为全球提供高速低延迟互联网服务,尤其覆盖偏远与网络基础设施匮乏地区,目前该卫星已在轨运行约两年零八个月,参与构建全球卫星互联网星座网络。
美国
(US)
| 数据来源 | 国际轨道数据 |
| 星历时间: | 2026-09-02T15:20:06+0800 1天前 查看轨道信息 |
| 半长轴: | 6861.2km |
| 偏心率: | 0.0001351 |
| 轨道倾角: | 43.003° |
| 近地点辐角 | 245.332° |
| 升交点赤经 | 102.236° |
| 平近点角 | 114.739° |
| 近地点: | 482.136km |
| 远地点: | 483.99km |
| 周期: | 94.267分钟 |
| 每日圈数: | 15.275754 |
| 事件ID | 空间交会对象 | 最接近时刻(TCA) | 交会距离 | 交会风险概率(CRP) | 交会风险指数(CRI) | 操作 |
|---|---|---|---|---|---|---|
| CDM_260904-193105-706805-726222 |
STARLINK-5844
(57068)
STARLINK-5504
(57262) | 2026-09-04T 19:31:35+0000 |
0.438 km
远距离 | 1.884284E-4 高风险 | 0.81 | |
| CDM_260904-210505-706805-726222 |
STARLINK-5844
(57068)
STARLINK-5504
(57262) | 2026-09-04T 21:05:44+0000 |
0.501 km
远距离 | 1.375545E-4 高风险 | 0.78 | |
| CDM_260905-071305-726206-386021 |
STARLINK-5504
(57262)
STARLINK-33888
(63860) | 2026-09-05T 07:13:32+0000 |
0.619 km
远距离 | 6.04571E-5 中风险 | 0.71 | |
| CDM_260905-144105-726206-742421 |
STARLINK-5504
(57262)
STARLINK-36362
(67424) | 2026-09-05T 14:41:36+0000 |
0.766 km
远距离 | 4.918712E-5 中风险 | 0.69 | |
| CDM_260903-193205-726206-328023 |
STARLINK-5504
(57262)
STARLINK-33646
(63280) | 2026-09-03T 19:32:54+0000 |
1.177 km
极远距离 | 1.146843E-5 中风险 | 0.56 | |
| CDM_260904-054405-726206-328022 |
STARLINK-5504
(57262)
STARLINK-33646
(63280) | 2026-09-04T 05:44:53+0000 |
1.208 km
极远距离 | 1.045726E-5 中风险 | 0.55 | |
| CDM_260904-175705-706805-726222 |
STARLINK-5844
(57068)
STARLINK-5504
(57262) | 2026-09-04T 17:57:25+0000 |
1.253 km
极远距离 | 7.814753E-6 低风险 | 0.53 | |
| CDM_260904-223905-706805-726222 |
STARLINK-5844
(57068)
STARLINK-5504
(57262) | 2026-09-04T 22:39:54+0000 |
1.340 km
极远距离 | 6.210757E-6 低风险 | 0.51 | |
| CDM_260905-053905-726206-386021 |
STARLINK-5504
(57262)
STARLINK-33888
(63860) | 2026-09-05T 05:39:23+0000 |
1.315 km
极远距离 | 5.010902E-6 低风险 | 0.49 | |
| CDM_260903-175805-726206-328023 |
STARLINK-5504
(57262)
STARLINK-33646
(63280) | 2026-09-03T 17:58:45+0000 |
2.146 km
极远距离 | 1.858609E-6 低风险 | 0.4 |